• In Italy
  • List of Countries
  • For 7 days
  • Water Temperature
  • Satellite Maps
  • Weather Map
  • Weather Widgets
  • user-avatar
    Login

    Hourly Weather Djaipur

    Today, 19 July, Thursday

    Time Temperature Precipitation Wind Pressure Humidity
    00:00 +32°C° 1.3 mm 2 mps 715 mmHg 64%
    01:00 +32°C° 1.3 mm 2 mps 715 mmHg 66%
    02:00 +32°C° 1.3 mm 2 mps 715 mmHg 68%
    03:00 +31°C° 2.2 mm 2 mps 715 mmHg 70%
    04:00 +31°C° 2.2 mm 3 mps 715 mmHg 72%
    05:00 +30°C° 0 mm 2 mps 716 mmHg 76%
    06:00 +31°C° 2.3 mm 2 mps 716 mmHg 74%
    07:00 +31°C° 2.3 mm 2 mps 716 mmHg 73%
    08:00 +31°C° 2.3 mm 2 mps 716 mmHg 71%
    09:00 +32°C° 0.2 mm 2 mps 716 mmHg 68%
    10:00 +32°C° 0.2 mm 1 mps 716 mmHg 65%
    11:00 +33°C° 0.2 mm 1 mps 716 mmHg 62%
    12:00 +33°C° 0.1 mm 1 mps 715 mmHg 60%
    13:00 +35°C° 0.1 mm 2 mps 715 mmHg 58%
    14:00 +35°C° 0.1 mm 2 mps 714 mmHg 56%
    15:00 +36°C° 0 mm 2 mps 714 mmHg 55%
    16:00 +36°C° 0 mm 2 mps 714 mmHg 53%
    17:00 +36°C° 0 mm 2 mps 714 mmHg 52%
    18:00 +36°C° 0.1 mm 2 mps 713 mmHg 55%
    19:00 +35°C° 0.1 mm 2 mps 713 mmHg 57%
    20:00 +35°C° 0.1 mm 2 mps 713 mmHg 60%
    21:00 +34°C° 0.2 mm 2 mps 713 mmHg 60%
    22:00 +34°C° 0.2 mm 2 mps 714 mmHg 61%
    23:00 +34°C° 0.2 mm 2 mps 714 mmHg 62%

    Tomorrow, 20 July, Friday

    Time Temperature Precipitation Wind Pressure Humidity
    00:00 +34°C° 0 mm 2 mps 714 mmHg 62%
    01:00 +34°C° 0 mm 2 mps 713 mmHg 63%
    02:00 +34°C° 0 mm 2 mps 713 mmHg 63%
    03:00 +32°C° 0 mm 2 mps 713 mmHg 64%
    04:00 +32°C° 0 mm 2 mps 713 mmHg 66%
    05:00 +32°C° 0 mm 2 mps 713 mmHg 67%
    06:00 +34°C° 0.7 mm 2 mps 713 mmHg 65%
    07:00 +34°C° 0.7 mm 2 mps 714 mmHg 63%
    08:00 +35°C° 0.7 mm 2 mps 714 mmHg 60%
    09:00 +36°C° 0.2 mm 2 mps 714 mmHg 56%
    10:00 +37°C° 0.2 mm 2 mps 714 mmHg 52%
    11:00 +38°C° 0.2 mm 2 mps 715 mmHg 48%
    12:00 +38°C° 0.1 mm 3 mps 714 mmHg 48%
    13:00 +38°C° 0.1 mm 3 mps 714 mmHg 47%
    14:00 +38°C° 0.1 mm 3 mps 713 mmHg 47%
    15:00 +38°C° 0.4 mm 3 mps 713 mmHg 49%
    16:00 +37°C° 0.4 mm 3 mps 713 mmHg 52%
    17:00 +37°C° 0.4 mm 3 mps 712 mmHg 54%
    18:00 +36°C° 0 mm 3 mps 713 mmHg 57%
    19:00 +36°C° 0 mm 3 mps 713 mmHg 60%
    20:00 +35°C° 0 mm 4 mps 713 mmHg 63%
    21:00 +34°C° 1.1 mm 4 mps 713 mmHg 66%
    22:00 +34°C° 1.1 mm 3 mps 713 mmHg 69%
    23:00 +33°C° 1.1 mm 3 mps 713 mmHg 72%

    Day after tomorrow, 21 July, Saturday

    Time Temperature Precipitation Wind Pressure Humidity
    00:00 +33°C° 2.5 mm 3 mps 713 mmHg 72%
    01:00 +33°C° 2.5 mm 3 mps 713 mmHg 73%
    02:00 +31°C° 2.5 mm 3 mps 713 mmHg 74%
    03:00 +32°C° 0.9 mm 4 mps 713 mmHg 76%
    04:00 +30°C° 0.9 mm 4 mps 713 mmHg 78%
    05:00 +30°C° 0.9 mm 4 mps 713 mmHg 80%
    06:00 +30°C° 1.1 mm 4 mps 714 mmHg 78%
    07:00 +32°C° 1.1 mm 4 mps 714 mmHg 77%
    08:00 +32°C° 1.1 mm 4 mps 715 mmHg 75%
    09:00 +33°C° 2.6 mm 4 mps 715 mmHg 70%
    10:00 +34°C° 2.6 mm 4 mps 715 mmHg 66%
    11:00 +35°C° 2.6 mm 3 mps 716 mmHg 62%
    12:00 +36°C° 1.5 mm 3 mps 715 mmHg 60%
    13:00 +36°C° 1.5 mm 3 mps 715 mmHg 59%
    14:00 +36°C° 1.5 mm 4 mps 715 mmHg 57%
    15:00 +36°C° 0.1 mm 4 mps 714 mmHg 59%
    16:00 +35°C° 0.1 mm 4 mps 714 mmHg 60%
    17:00 +35°C° 0.1 mm 4 mps 714 mmHg 62%
    18:00 +35°C° 0 mm 4 mps 714 mmHg 64%
    19:00 +34°C° 0 mm 3 mps 714 mmHg 67%
    20:00 +33°C° 0 mm 3 mps 714 mmHg 70%
    21:00 +33°C° 0 mm 3 mps 714 mmHg 71%
    22:00 +33°C° 0 mm 4 mps 714 mmHg 71%
    23:00 +32°C° 0 mm 4 mps 714 mmHg 72%

    22 July, Sunday

    Time Temperature Precipitation Wind Pressure Humidity
    00:00 +32°C° 0.3 mm 5 mps 714 mmHg 72%
    01:00 +32°C° 0.3 mm 5 mps 714 mmHg 72%
    02:00 +30°C° 0.3 mm 6 mps 714 mmHg 72%
    03:00 +30°C° 1.3 mm 6 mps 714 mmHg 74%
    04:00 +29°C° 1.3 mm 6 mps 714 mmHg 76%
    05:00 +29°C° 1.3 mm 5 mps 714 mmHg 79%
    06:00 +29°C° 0.4 mm 5 mps 714 mmHg 78%
    07:00 +29°C° 0.4 mm 5 mps 715 mmHg 77%
    08:00 +29°C° 0.4 mm 5 mps 715 mmHg 76%
    09:00 +30°C° 0 mm 5 mps 715 mmHg 72%
    10:00 +32°C° 0 mm 5 mps 715 mmHg 68%
    11:00 +33°C° 0 mm 4 mps 715 mmHg 65%
    12:00 +33°C° 0 mm 4 mps 715 mmHg 62%
    13:00 +34°C° 0 mm 4 mps 714 mmHg 60%
    14:00 +34°C° 0 mm 3 mps 714 mmHg 58%
    15:00 +34°C° 0.1 mm 3 mps 714 mmHg 59%
    16:00 +34°C° 0.1 mm 2 mps 714 mmHg 60%
    17:00 +33°C° 0.1 mm 1 mps 714 mmHg 61%
    18:00 +32°C° 0.2 mm 1 mps 714 mmHg 64%
    19:00 +32°C° 0.2 mm 1 mps 714 mmHg 67%
    20:00 +31°C° 0.2 mm 1 mps 714 mmHg 70%
    21:00 +31°C° 0.4 mm 1 mps 714 mmHg 71%
    22:00 +31°C° 0.4 mm 2 mps 715 mmHg 73%
    23:00 +30°C° 0.4 mm 2 mps 715 mmHg 74%

    23 July, Monday

    Time Temperature Precipitation Wind Pressure Humidity
    00:00 +30°C° 0.5 mm 2 mps 714 mmHg 75%
    01:00 +30°C° 0.5 mm 3 mps 714 mmHg 76%
    02:00 +30°C° 0.5 mm 3 mps 714 mmHg 77%
    03:00 +29°C° 0.2 mm 3 mps 714 mmHg 77%
    04:00 +29°C° 0.2 mm 3 mps 714 mmHg 78%
    05:00 +29°C° 0.2 mm 3 mps 714 mmHg 78%
    06:00 +29°C° 0.1 mm 3 mps 714 mmHg 78%
    07:00 +29°C° 0.1 mm 3 mps 714 mmHg 78%
    08:00 +29°C° 0.1 mm 3 mps 715 mmHg 77%
    09:00 +30°C° 0.1 mm 3 mps 715 mmHg 75%
    10:00 +30°C° 0.1 mm 2 mps 715 mmHg 73%
    11:00 +30°C° 0.1 mm 2 mps 715 mmHg 70%
    12:00 +32°C° 0.1 mm 2 mps 714 mmHg 65%
    13:00 +34°C° 0.1 mm 2 mps 714 mmHg 60%
    14:00 +35°C° 0.1 mm 2 mps 713 mmHg 56%
    15:00 +35°C° 1.1 mm 2 mps 713 mmHg 56%
    16:00 +35°C° 1.1 mm 2 mps 713 mmHg 57%
    17:00 +35°C° 1.1 mm 2 mps 713 mmHg 58%
    18:00 +34°C° 2.2 mm 2 mps 714 mmHg 63%
    19:00 +32°C° 2.2 mm 2 mps 714 mmHg 68%
    20:00 +31°C° 2.2 mm 1 mps 715 mmHg 72%
    21:00 +31°C° 1.7 mm 2 mps 715 mmHg 74%
    22:00 +30°C° 1.7 mm 2 mps 715 mmHg 76%
    23:00 +30°C° 1.7 mm 3 mps 715 mmHg 77%

    24 July, Tuesday

    Time Temperature Precipitation Wind Pressure Humidity
    00:00 +30°C° 1.6 mm 3 mps 715 mmHg 78%
    01:00 +30°C° 1.6 mm 3 mps 714 mmHg 79%
    02:00 +29°C° 1.6 mm 4 mps 714 mmHg 79%
    03:00 +29°C° 2.5 mm 4 mps 714 mmHg 81%
    04:00 +29°C° 2.5 mm 4 mps 714 mmHg 82%
    05:00 +28°C° 2.5 mm 4 mps 715 mmHg 84%
    06:00 +28°C° 5.4 mm 4 mps 715 mmHg 85%
    07:00 +28°C° 5.4 mm 4 mps 715 mmHg 86%
    08:00 +28°C° 5.4 mm 4 mps 716 mmHg 87%
    09:00 +28°C° 4.5 mm 4 mps 716 mmHg 87%
    10:00 +28°C° 4.5 mm 4 mps 716 mmHg 88%
    11:00 +28°C° 4.5 mm 4 mps 716 mmHg 88%
    12:00 +28°C° 1.4 mm 4 mps 716 mmHg 87%
    13:00 +28°C° 1.4 mm 4 mps 715 mmHg 87%
    14:00 +28°C° 1.4 mm 4 mps 715 mmHg 86%
    15:00 +28°C° 0.2 mm 4 mps 715 mmHg 85%
    16:00 +28°C° 0.2 mm 3 mps 715 mmHg 84%
    17:00 +28°C° 0.2 mm 3 mps 715 mmHg 83%
    18:00 +28°C° 0 mm 3 mps 715 mmHg 83%
    19:00 +28°C° 0 mm 3 mps 715 mmHg 84%
    20:00 +28°C° 0 mm 2 mps 716 mmHg 84%
    21:00 +28°C° 0 mm 3 mps 716 mmHg 84%
    22:00 +28°C° 0 mm 3 mps 716 mmHg 84%
    23:00 +28°C° 0 mm 3 mps 716 mmHg 84%
    Show more